Paso Robles, CA

4:59 AM PST on February 26, 2017 (GMT -0800)
Paso Robles Municipal

Weather History for KPRB - April, 2014

Change the Weather History Date:

Saturday, April 12, 2014

  Actual Average Record
Temperature  
Mean Temperature 57 °F 56 °F  
Max Temperature 68 °F 71 °F 91 °F (1990)
Min Temperature 45 °F 41 °F 30 °F (1953)
Degree Days  
Heating Degree Days 8 9  
Month to date heating degree days 84 120  
Since 1 July heating degree days 2019 2579  
Cooling Degree Days 0 0  
Month to date cooling degree days 2 0  
Year to date cooling degree days 2 0  
Growing Degree Days 8 (Base 50)    
Moisture  
Dew Point 46 °F    
Average Humidity 71    
Maximum Humidity 93    
Minimum Humidity 49    
Precipitation  
Precipitation 0.00 in 0.02 in 0.20 in (2012)
Month to date precipitation 0.32 0.36  
Year to date precipitation 4.44 8.19  
Since 1 July precipitation 4.90  
Sea Level Pressure  
Sea Level Pressure 29.90 in    
Wind  
Wind Speed 8 mph (SW)    
Max Wind Speed 21 mph    
Max Gust Speed 26 mph    
Visibility 10 miles    
Events      
T = Trace of Precipitation, MM = Missing Value Source: NWS Daily Summary

Daily Weather History Graph

Daily Weather History Graph

Search for Another Location

Airport or City:

Trip Planner

Search our weather history database for the weather conditions in past years. The results will help you decide how hot, cold, wet, or windy it might be!

Date:

Astronomy

Apr. 12, 2014 Rise Set
Actual Time 6:33 AM PDT 7:33 PM PDT
Civil Twilight 6:07 AM PDT 7:59 PM PDT
Nautical Twilight 5:36 AM PDT 8:30 PM PDT
Astronomical Twilight 5:04 AM PDT 9:02 PM PDT
Moon 5:21 PM PDT (4/12) 4:58 AM PDT (4/12)
Length of Visible Light 13h 52m
Length of Day
12h 59m
Waxing Gibbous, 93% of the Moon is Illuminated
Apr 12
Waxing Gibbous
Apr 15
Full
Apr 22
Last Quarter
Apr 28
New
May 6
First Quarter

Hourly Weather History & Observations

Time (PDT) Temp. Dew Point Humidity Pressure Visibility Wind Dir Wind Speed Gust Speed Precip Events Conditions
12:53 AM 48.0 °F 46.0 °F 93% 29.90 in 10.0 mi SSW 5.8 mph - N/A   Scattered Clouds
1:02 AM 48.9 °F 46.0 °F 90% 29.91 in 10.0 mi SW 5.8 mph - N/A   Mostly Cloudy
1:17 AM 48.0 °F 46.0 °F 93% 29.91 in 10.0 mi WSW 5.8 mph - N/A   Scattered Clouds
1:53 AM 48.9 °F 46.0 °F 90% 29.90 in 10.0 mi Calm Calm - N/A   Mostly Cloudy
2:53 AM 50.0 °F 46.0 °F 86% 29.90 in 10.0 mi NW 5.8 mph - N/A   Overcast
3:53 AM 51.1 °F 46.0 °F 83% 29.90 in 10.0 mi West 4.6 mph - N/A   Overcast
4:00 AM 51.1 °F 46.0 °F 83% 29.91 in 10.0 mi West 4.6 mph - N/A   Overcast
4:27 AM 51.1 °F 46.0 °F 83% 29.90 in 10.0 mi Calm Calm - N/A   Overcast
4:53 AM 51.1 °F 46.0 °F 83% 29.89 in 10.0 mi NW 3.5 mph - N/A   Overcast
5:53 AM 51.1 °F 46.0 °F 83% 29.88 in 10.0 mi Calm Calm - N/A   Overcast
6:53 AM 51.1 °F 46.0 °F 83% 29.89 in 10.0 mi North 5.8 mph - N/A   Overcast
7:53 AM 51.1 °F 45.0 °F 80% 29.91 in 10.0 mi Calm Calm - N/A   Overcast
8:53 AM 51.1 °F 46.0 °F 83% 29.92 in 10.0 mi Calm Calm - N/A   Overcast
9:53 AM 52.0 °F 46.0 °F 80% 29.94 in 10.0 mi Variable 4.6 mph - N/A   Overcast
10:53 AM 53.1 °F 46.0 °F 77% 29.95 in 10.0 mi WSW 3.5 mph - N/A   Overcast
11:19 AM 55.0 °F 46.0 °F 72% 29.94 in 10.0 mi West 5.8 mph - N/A   Overcast
11:53 AM 57.9 °F 46.0 °F 65% 29.93 in 10.0 mi SSW 9.2 mph - N/A   Overcast
12:09 PM 57.9 °F 46.0 °F 65% 29.93 in 10.0 mi Calm Calm - N/A   Scattered Clouds
12:53 PM 63.0 °F 46.9 °F 56% 29.91 in 10.0 mi SSW 9.2 mph - N/A   Clear
1:53 PM 64.9 °F 46.0 °F 50% 29.89 in 10.0 mi South 15.0 mph - N/A   Clear
2:53 PM 66.9 °F 48.0 °F 51% 29.87 in 10.0 mi SSW 15.0 mph - N/A   Clear
3:53 PM 68.0 °F 48.0 °F 49% 29.86 in 10.0 mi SSW 15.0 mph - N/A   Clear
4:53 PM 66.0 °F 48.0 °F 52% 29.86 in 10.0 mi SW 17.3 mph 21.9 mph N/A   Clear
5:53 PM 62.1 °F 46.9 °F 58% 29.86 in 10.0 mi South 18.4 mph 24.2 mph N/A   Clear
6:53 PM 57.0 °F 46.0 °F 67% 29.87 in 10.0 mi SSW 18.4 mph 24.2 mph N/A   Clear
7:53 PM 54.0 °F 46.0 °F 75% 29.88 in 10.0 mi SSW 13.8 mph - N/A   Clear
8:53 PM 52.0 °F 46.0 °F 80% 29.91 in 10.0 mi SSW 12.7 mph - N/A   Clear
9:53 PM 51.1 °F 46.0 °F 83% 29.94 in 10.0 mi SSW 6.9 mph - N/A   Clear
10:53 PM 48.9 °F 45.0 °F 86% 29.94 in 10.0 mi SSW 4.6 mph - N/A   Clear
11:53 PM 48.0 °F 44.1 °F 86% 29.95 in 10.0 mi SW 3.5 mph - N/A   Clear